STARLINK-3748, 52267

Orbit data source: Space-Track

STARLINK-3748, 52267 is a payload satellite owned by SpaceX/Seattle (US) in LEO that was launched on Thu, 21 Apr 2022 UTC via an FALCON 9 launch vehicle from the Air Force Eastern Test Range (AFETR). Payload-class satellites include a variety of spacecraft equipped with specific instruments for various scientific and technological missions. These include communications satellites like Starlink; space stations such as the ISS; scientific satellites like the Hubble; Earth observation satellites from companies like Planet Labs, Umbra, and HawkEye 360; GPS; miniature CubeSats for education and research; and military/defense satellites.

Loading next visibility...
Identifier
52267, 2022-041G
Orbit
LEO
Country
Flag of USUS
Related business
Manufacturer
SpaceX/Seattle
Mission
Operational Commercial Communications
Bus & Motor
STARLINK, Unknown motor
Mass
297 kg wet, ~275 kg dry
Launch date (UTC)
2022-04-21 (4 years ago)
Launch vehicle
FALCON 9
Launch site
Air Force Eastern Test Range (AFETR)
Object type
Payload
Rocket body
Debris
Shape & HBR
Box + 1 Pan, 10.1 m
Radar Cross Section
11.087 m², Large (>1 m²)

Expand to show TLE details & history
Last TLE update: 7 hours ago

TLE from 7 hours ago
0 STARLINK-3748
1 52267U 22041G   26130.16799721  .00000364  00000-0  40965-4 0  9996
2 52267  53.2162 193.1408 0001112  93.3820 266.7300 15.08841751223640
Epoch: 2026-05-10T04:01Z
TLE epoch observation values (Epoch: 2026-05-10T04:01:54.958Z)
Latitude
0.00001°
Longitude
-95.31314°
Altitude
540.679 km
Speed
7.593 km/s
True Right ascension
12h 52m 33s
True Declination
0° 00' 00"
Sunlit
Object was in full shadow at epoch
Visualization orbit readout
Latitude
Unknown
Longitude
Unknown
Altitude
Unknown
Speed
Unknown
Apparent Right ascension
Unknown
Apparent Declination
Unknown
Sunlit
N/A
Visualization observer readout
Local Sidereal Time
18:56:53
Azimuth
Unknown
Elevation
Unknown
Doppler factor
Unknown
Orbital elements
Apogee altitude
540.752 km
Perigee altitude
539.214 km
Semi-major axis
6,918.12 km
Eccentricity
0.00011
Inclination
53.2162°
RAAN
193.1408°
Arg. of periapsis
93.382°
True anomaly
266.71728°
Mean anomaly
266.73°
Eccentric anomaly
266.72364°
Mean motion
3.77191 °/min
Orbital period
95.44 mins
BSTAR
0.000040965
Loading maneuver chart data...
Computing Atmospheric mass density...

Documentation

Showing up to 5 results
|